Lid_Strength_Index
8 11 13 12 10 11 12 14 14 13 9 11 11 11 9 8 9 9 8 8 8 6 5 5 4 4 2 2 2 2 2 2 3 3 3 4 4 4 4 3 3 2 1 1
11 13 11 9 10 11 12 14 14 12 10 11 11 12 10 9 9 9 8 8 8 7 6 6 5 5 3 2 2 2 2 2 2 2 3 2 3 3 3 3 3 3 2 2
12 12 9 10 11 13 13 14 14 14 12 11 12 13 11 10 10 9 8 7 7 7 7 6 6 6 4 3 2 2 1 1 2 2 2 3 4 4 4 3 4 4 3 2
10 9 10 11 12 11 15 11 11 12 14 17 12 17 14 12 11 10 9 8 8 7 7 7 6 6 5 3 2 1 1 1 1 2 2 3 3 3 3 3 3 3 4 4
12 11 12 12 11 10 12 10 11 12 14 16 15 17 16 13 13 11 9 8 8 7 7 7 7 6 6 2 2 2 1 1 1 1 2 2 3 2 2 2 3 3 3 4
11 9 9 10 9 9 9 11 12 13 14 18 15 16 15 13 13 11 9 8 8 8 8 8 7 6 6 5 3 3 2 2 2 2 2 2 3 2 2 2 3 2 2 3
12 11 10 9 12 10 11 13 18 20 19 20 14 16 14 13 11 10 9 8 9 8 8 8 8 8 7 7 5 3 3 3 2 2 2 2 2 2 2 2 2 2 3 3
16 18 11 10 11 12 12 12 17 23 21 19 15 18 14 10 8 8 8 8 8 8 8 8 8 8 8 8 8 6 3 3 3 2 2 2 2 2 2 2 2 2 2 2
15 15 10 9 9 9 12 15 11 16 18 19 17 14 11 10 10 9 9 9 10 9 9 9 9 9 9 9 8 8 6 5 3 2 2 2 2 2 2 1 1 1 1 1
13 16 11 10 10 9 11 10 16 15 21 23 18 18 15 13 11 10 10 10 9 10 10 10 10 10 9 9 9 9 8 7 7 6 5 4 3 2 1 1 1 1 1 1
12 14 14 11 13 13 12 14 14 14 16 19 21 18 12 11 10 11 11 10 10 10 10 10 10 10 10 10 9 9 8 8 8 7 7 6 6 5 4 2 2 2 1 1
11 14 16 14 11 9 10 12 12 17 18 16 17 16 11 10 10 11 11 10 10 10 11 11 11 11 11 10 10 10 9 8 8 7 7 7 7 7 6 6 5 3 3 2
10 14 20 16 13 12 13 12 11 13 14 17 18 16 10 11 11 11 11 11 11 11 11 11 11 11 11 11 11 10 9 9 9 8 8 8 8 8 8 7 7 6 5 5
8 13 14 17 15 12 14 13 12 13 16 16 15 13 12 12 12 12 12 11 11 11 12 11 12 12 12 12 12 12 11 10 10 10 10 10 9 8 7 7 7 7 6 6
9 14 15 15 14 12 13 13 12 14 13 16 13 14 11 11 11 11 10 10 12 12 12 13 13 13 13 13 13 12 12 12 11 11 11 11 10 9 9 9 8 7 7 7
10 14 14 16 14 14 16 12 12 12 12 13 13 13 10 11 10 13 13 13 13 14 14 15 15 14 14 14 13 13 13 13 12 13 12 11 10 10 10 9 9 9 8 8
11 13 14 17 14 14 18 15 13 12 12 12 15 11 10 13 14 15 15 15 15 15 15 15 15 14 14 14 13 13 14 13 13 13 12 12 11 11 11 10 10 10 9 8
11 12 13 18 16 20 14 13 12 12 12 11 13 15 15 14 16 17 17 17 17 16 16 16 15 16 15 15 15 15 15 14 14 14 13 12 13 13 12 12 11 11 10 10
9 12 18 18 19 18 16 15 14 14 14 16 17 18 17 16 16 18 18 18 17 17 17 17 17 16 17 16 16 17 17 16 16 15 14 15 15 15 15 14 14 13 12 12
9 10 13 21 20 23 16 15 15 12 16 19 17 19 19 17 18 18 19 19 18 18 18 18 18 18 18 18 18 18 18 18 18 17 17 16 16 16 16 15 14 13 12 12
14 14 16 19 23 20 17 17 15 18 18 19 19 20 20 19 20 20 19 19 19 19 19 18 19 19 19 19 19 19 19 19 18 18 18 17 17 16 15 14 14 14 14 12
14 15 16 19 19 20 20 17 15 18 19 19 21 21 21 21 21 21 21 20 20 20 20 19 20 20 19 19 19 20 20 19 19 19 19 19 19 18 17 17 16 15 13 13
15 13 15 14 16 21 20 20 19 18 20 21 21 21 22 22 22 21 21 21 20 20 20 20 21 21 20 19 19 21 20 19 20 20 21 20 19 18 17 18 17 16 15 14
16 15 18 18 21 22 21 21 21 21 21 21 21 22 22 23 21 21 21 21 21 21 21 21 22 22 22 21 21 20 20 20 21 22 21 20 20 20 18 17 16 16 16 15
19 16 18 21 21 21 22 22 22 22 21 22 22 22 23 22 22 22 22 23 23 22 22 23 23 23 23 22 22 22 21 21 22 22 22 22 22 22 21 19 19 18 17 16
22 20 17 18 20 20 21 22 22 23 23 23 23 23 23 23 24 24 24 24 24 24 24 24 24 24 24 23 24 23 23 23 24 24 24 23 22 22 22 21 21 17 16 15